[[{"header":{"parameterUnit":"m.s-1","parameterCategory":1,"la1":30.2991,"la2":30.254,"lo1":-89.0895,"lo2":-89.0444,"dy":0.0017,"dx":0.0017,"nx":28,"ny":28,"refTime":"2024-04-12T21:00:00:Z","depth":0,"parameterNumber":2,"parameterNumberName":"U-component_of_WINDS"},"data":[0,0,0,0,0,0,0,0,0,0,0,0,0,0,0,0,0,0,0,0,0,0,0,0,0,0,0,0,0,0,0,0,0,0,0,0,0,0,0,0,0,0,0,0,0,0,0,0,0,0,0,0,0,0,0,0,0,0,-1.9464,-1.9465,0,-1.9487,-1.9488,-1.9488,-1.9393,-1.939,-1.9387,-1.9384,-1.9409,-1.9412,-1.9415,0,0,0,0,0,0,0,0,0,0,0,0,0,-1.9339,-1.9342,-1.9464,-1.9465,-1.9465,-1.9487,-1.9488,-1.9488,-1.9393,-1.939,-1.9386,-1.9383,-1.9407,-1.9411,-1.9415,0,0,0,0,0,0,0,0,0,0,0,0,0,-1.9381,-1.9343,-1.9464,-1.942,-1.9417,-1.9487,-1.9488,-1.9488,-1.9394,-1.939,-1.9385,-1.9381,-1.9406,-1.9411,-1.9416,-1.953,0,0,-1.9431,-1.9433,0,0,0,0,0,0,0,0,-1.9379,-1.9386,-1.9427,-1.9423,-1.9419,-1.9433,-1.9452,-1.9502,-1.9395,-1.9403,-1.9384,-1.9379,-1.942,-1.9424,-1.9437,-1.9531,-1.9532,-1.9431,-1.9434,-1.9436,-1.9438,0,0,0,0,0,0,0,-1.9376,-1.9384,-1.9473,-1.9427,-1.9423,-1.94,-1.9401,-1.9461,-1.9435,-1.9401,-1.9395,-1.9399,-1.9417,-1.9433,-1.9437,-1.9533,-1.9431,-1.9435,-1.9438,-1.944,-1.9722,-1.9727,0,0,0,0,0,0,-1.9379,-1.9382,-1.9473,-1.9474,-1.9388,-1.9405,-1.9407,-1.9433,-1.9434,-1.943,-1.9402,-1.9394,-1.9426,-1.9431,-1.9437,-1.9572,-1.9436,-1.9441,-1.9444,-1.9718,-1.9723,-1.9728,0,0,0,0,0,0,-1.9376,-1.9388,-1.9472,-1.9426,-1.9435,-1.9412,-1.9442,-1.9435,-1.9451,-1.9434,-1.9429,-1.9423,-1.9423,-1.9431,-1.9508,-1.9572,-1.9443,-1.9447,-1.9713,-1.972,-1.9726,-1.9843,0,0,0,0,0,0,-1.9373,-1.9387,-1.9431,-1.9428,-1.9438,-1.9542,-1.9446,-1.9439,-1.9459,-1.9449,-1.9452,-1.9449,-1.942,-1.9501,-1.9513,-1.9576,-1.9451,-1.9707,-1.9716,-1.9724,-1.9833,-1.9853,-1.987,0,0,0,0,0,-1.9369,-1.9463,-1.9433,-1.9445,-1.9492,-1.9546,-1.9552,-1.9517,-1.9465,-1.9508,-1.9498,-1.9448,-1.9563,-1.951,-1.9522,-1.9588,-1.9703,-1.9713,-1.9723,-1.9825,-1.9849,-1.9869,0,0,0,0,0,0,-1.9474,-1.9461,-1.9429,-1.9524,-1.9537,-1.953,-1.9584,-1.9544,-1.9572,-1.9561,-1.9517,-1.9518,-1.9604,-1.9603,-1.9545,-1.9699,-1.9624,-1.9637,-1.9697,-1.972,-1.9738,-1.9737,-1.9455,0,0,0,0,0,-1.9508,-1.9553,-1.954,-1.9625,-1.9633,-1.9608,-1.963,-1.9602,-1.9614,-1.9619,-1.9614,-1.9627,-1.9665,-1.9692,-1.9727,-1.9832,-1.9832,-1.9883,-1.9902,-1.9917,-1.9929,-1.9986,-2.0009,-1.9762,-1.9762,-1.9762,0,0,-1.9579,-1.9578,-1.9609,-1.9646,-1.9653,-1.9701,-1.9613,-1.9667,-1.9703,-1.9627,-1.97,-1.9697,-1.9708,-1.9801,-1.9841,-1.9803,-1.9997,-1.993,-1.9942,-1.9946,-1.9999,-2.0023,-2.0043,-1.9769,-1.9768,-1.9767,0,0,-1.9733,-1.9736,-1.9808,-1.9817,-1.9828,-1.981,-1.9828,-1.9827,-1.9822,-1.9894,-1.9839,-1.988,-1.9947,-1.9958,-1.9973,-2.0131,-2.0088,-2.0144,-2.024,-2.0296,-2.0315,-2.0332,-2.0391,-2.0412,-2.0156,-2.0156,-2.0156,0,-1.982,-1.9891,-1.9851,-1.9909,-1.9928,-1.9861,-1.9934,-1.9944,-1.9966,-1.9981,-1.9937,-2.0021,-2.0024,-2.0118,-2.0157,-2.017,-2.019,-2.0144,-2.0316,-2.0332,-2.0348,-2.0403,-2.0425,-2.0163,-2.0162,-2.0162,-2.0161,0,-1.9998,-2.0047,-2.0104,-2.0128,-2.0152,-2.0218,-2.0188,-2.0218,-2.0188,-2.0175,-2.025,-2.0251,-2.0286,-2.0305,-2.0276,-2.0396,-2.0372,-2.0323,-2.0246,-2.0379,-2.043,-2.045,-2.0173,-2.017,-2.0168,-2.0167,0,0,-2.022,-2.022,-2.0242,-2.0252,-2.0259,-2.0297,-2.0359,-2.0393,-2.042,-2.0437,-2.0489,-2.0547,-2.0502,-2.0519,-2.049,-2.0539,-2.0666,-2.0483,-2.0483,-2.0519,-2.08,-2.0839,-2.0864,-2.0636,-2.064,-2.0643,-2.0799,0,-2.0373,-2.048,-2.0446,-2.0555,-2.0601,-2.0538,-2.0592,-2.0603,-2.0593,-2.063,-2.0618,-2.0661,-2.0597,-2.0606,-2.0652,-2.0641,-2.0723,-2.0629,-2.0686,-2.0688,-2.0687,-2.089,-2.0931,-2.1078,-2.0819,-2.0822,-2.0825,0,-2.0566,-2.0591,-2.0705,-2.0705,-2.0723,-2.0773,-2.0801,-2.0837,-2.0848,-2.0837,-2.0855,-2.0817,-2.0878,-2.08,-2.0885,-2.0823,-2.0843,-2.0842,-2.0847,-2.0852,-2.0766,-2.0903,-2.1124,-2.1147,-2.0855,-2.0853,-2.0851,0,-2.0719,-2.0781,-2.0858,-2.0868,-2.0869,-2.0906,-2.0908,-2.0915,-2.0937,-2.0961,-2.0976,-2.1007,-2.1025,-2.105,-2.1021,-2.0966,-2.1111,-2.103,-2.1104,-2.1105,-2.1139,-2.1138,-2.1369,-2.115,-2.1149,-2.1149,-2.1148,0,-2.0895,-2.0968,-2.0927,-2.0974,-2.1053,-2.1013,-2.1093,-2.1088,-2.1094,-2.1139,-2.1086,-2.1129,-2.1087,-2.1127,-2.1105,-2.1179,-2.1187,-2.1181,-2.1174,-2.1187,-2.1188,-2.1201,-2.1191,-2.1155,-2.1153,-2.1152,-2.1151,0,-2.108,-2.1056,-2.1135,-2.113,-2.113,-2.1189,-2.1184,-2.1228,-2.1213,-2.1271,-2.1283,-2.126,-2.1304,-2.1277,-2.1322,-2.1306,-2.1404,-2.1383,-2.1401,-2.1396,-2.1473,-2.1467,-2.1722,-2.1754,-2.1513,-2.1515,-2.1517,0,-2.1195,-2.1249,-2.125,-2.1277,-2.1283,-2.1326,-2.1349,-2.1311,-2.1337,-2.1353,-2.1395,-2.1434,-2.1464,-2.1538,-2.1525,-2.156,-2.1539,-2.1627,-2.1544,-2.1556,-2.1543,-2.1541,-2.1547,-2.1644,-2.1647,-2.1649,-2.1651,0,-2.1402,-2.1387,-2.1422,-2.1453,-2.1482,-2.1504,-2.1522,-2.1547,-2.1509,-2.1541,-2.1586,-2.1609,-2.1655,-2.1695,-2.1724,-2.1726,-2.1683,-2.1677,-2.1696,-2.171,-2.172,-2.1717,-2.1449,-2.1671,-2.1669,-2.1668,-2.1667,-2.1666,-2.1557,-2.1602,-2.161,-2.1651,-2.1661,-2.1679,-2.172,-2.171,-2.1747,-2.1781,-2.1756,-2.181,-2.1819,-2.1853,-2.1861,-2.1902,-2.1867,-2.1894,-2.1902,-2.191,-2.1921,-2.1712,-2.1907,-2.1906,-2.1906,-2.1905,-2.1905,0,-2.1762,-2.1764,-2.1802,-2.1829,-2.1861,-2.1817,-2.1835,-2.1865,-2.1913,-2.1925,-2.1955,-2.2007,-2.2046,-2.2036,-2.2071,-2.2106,-2.2087,-2.2117,-2.2115,-2.2116,-2.195,-2.193,-2.2131,-2.2131,-2.2131,-2.2131,-2.2131,-2.2131,-2.1873,-2.1949,-2.1935,-2.2015,-2.2016,-2.2068,-2.2082,-2.2099,-2.2108,-2.2169,-2.2201,-2.2194,-2.2197,-2.2232,-2.2266,-2.2262,-2.2278,-2.2315,-2.2305,-2.215,-2.2128,-2.2106,-2.2088,-2.2319,-2.2319,-2.2467,-2.2469,-2.247]},{"header":{"parameterUnit":"m.s-1","parameterCategory":1,"la1":30.2991,"la2":30.254,"lo1":-89.0895,"lo2":-89.0444,"dy":0.0017,"dx":0.0017,"nx":28,"ny":28,"refTime":"2024-04-12T21:00:00:Z","depth":0,"parameterNumber":3,"parameterNumberName":"V-component_of_WINDS"},"data":[0,0,0,0,0,0,0,0,0,0,0,0,0,0,0,0,0,0,0,0,0,0,0,0,0,0,0,0,0,0,0,0,0,0,0,0,0,0,0,0,0,0,0,0,0,0,0,0,0,0,0,0,0,0,0,0,0,0,-1.7961,-1.7962,0,-1.8034,-1.8035,-1.8036,-1.8038,-1.8037,-1.8036,-1.8035,-1.8108,-1.811,-1.8113,0,0,0,0,0,0,0,0,0,0,0,0,0,-1.7822,-1.7824,-1.7961,-1.7962,-1.7963,-1.8034,-1.8035,-1.8036,-1.8038,-1.8037,-1.8036,-1.8035,-1.8107,-1.811,-1.8113,0,0,0,0,0,0,0,0,0,0,0,0,0,-1.7887,-1.7825,-1.7961,-1.7972,-1.7974,-1.8034,-1.8035,-1.8036,-1.8038,-1.8037,-1.8036,-1.8034,-1.8106,-1.811,-1.8114,-1.8166,0,0,-1.8126,-1.8128,0,0,0,0,0,0,0,0,-1.7883,-1.7892,-1.797,-1.7972,-1.7974,-1.8025,-1.8012,-1.8079,-1.8038,-1.8014,-1.8035,-1.8034,-1.8081,-1.8087,-1.8104,-1.8169,-1.8172,-1.8127,-1.8129,-1.8131,-1.8132,0,0,0,0,0,0,0,-1.7879,-1.7889,-1.799,-1.7971,-1.7973,-1.7973,-1.7981,-1.8025,-1.8054,-1.8016,-1.8016,-1.8025,-1.8082,-1.81,-1.8106,-1.8173,-1.8127,-1.813,-1.8133,-1.8134,-1.8285,-1.8286,0,0,0,0,0,0,-1.7872,-1.7885,-1.7987,-1.7992,-1.7924,-1.7977,-1.7986,-1.801,-1.8054,-1.8059,-1.8026,-1.8025,-1.8093,-1.8101,-1.8108,-1.8172,-1.8131,-1.8135,-1.8137,-1.8283,-1.8285,-1.8287,0,0,0,0,0,0,-1.7869,-1.7881,-1.7984,-1.7939,-1.7952,-1.7981,-1.8008,-1.8012,-1.803,-1.8061,-1.8066,-1.8039,-1.8093,-1.8102,-1.8152,-1.8174,-1.8137,-1.814,-1.8281,-1.8284,-1.8286,-1.83,0,0,0,0,0,0,-1.7865,-1.788,-1.7901,-1.7939,-1.7954,-1.8027,-1.801,-1.8015,-1.8037,-1.8037,-1.8075,-1.808,-1.8092,-1.8145,-1.8156,-1.8179,-1.8144,-1.8279,-1.8282,-1.8285,-1.8297,-1.8302,-1.8306,0,0,0,0,0,-1.786,-1.7901,-1.7902,-1.7914,-1.7981,-1.8029,-1.8037,-1.8052,-1.8039,-1.806,-1.808,-1.8078,-1.817,-1.815,-1.8162,-1.8187,-1.8278,-1.8282,-1.8285,-1.8295,-1.8301,-1.8306,0,0,0,0,0,0,-1.7864,-1.7907,-1.7908,-1.7962,-1.7992,-1.8029,-1.8056,-1.8057,-1.8091,-1.8088,-1.8104,-1.8113,-1.8162,-1.8179,-1.8156,-1.824,-1.8223,-1.8228,-1.8226,-1.8232,-1.8237,-1.8231,-1.8147,0,0,0,0,0,-1.7871,-1.7908,-1.7942,-1.7987,-1.8002,-1.8026,-1.8048,-1.8056,-1.8087,-1.81,-1.8123,-1.8153,-1.8188,-1.8211,-1.8245,-1.83,-1.8308,-1.8323,-1.8327,-1.8331,-1.8336,-1.8366,-1.8373,-1.8298,-1.8298,-1.8298,0,0,-1.7887,-1.7914,-1.7936,-1.7989,-1.8013,-1.8049,-1.8037,-1.8076,-1.8103,-1.8105,-1.8154,-1.8172,-1.8206,-1.8258,-1.8282,-1.8274,-1.8358,-1.8335,-1.8338,-1.8341,-1.837,-1.8377,-1.8383,-1.83,-1.83,-1.8299,0,0,-1.7934,-1.7958,-1.7999,-1.8023,-1.806,-1.8075,-1.8085,-1.8122,-1.8134,-1.8183,-1.8186,-1.8217,-1.8278,-1.8302,-1.8322,-1.8378,-1.8378,-1.8389,-1.8412,-1.8441,-1.8447,-1.8453,-1.8472,-1.8479,-1.8394,-1.8394,-1.8394,0,-1.7948,-1.8004,-1.8019,-1.8058,-1.8081,-1.8086,-1.8126,-1.8149,-1.8195,-1.821,-1.8201,-1.8277,-1.83,-1.8358,-1.8372,-1.8388,-1.8399,-1.8385,-1.8445,-1.8451,-1.8456,-1.8475,-1.8483,-1.8395,-1.8395,-1.8394,-1.8394,0,-1.802,-1.8058,-1.8086,-1.8131,-1.8157,-1.8197,-1.8217,-1.8242,-1.8248,-1.8264,-1.8314,-1.8342,-1.8382,-1.8396,-1.8402,-1.8454,-1.8449,-1.8442,-1.8425,-1.8464,-1.8482,-1.849,-1.8396,-1.8396,-1.8396,-1.8395,0,0,-1.8071,-1.8124,-1.8134,-1.8155,-1.8195,-1.8225,-1.8265,-1.8305,-1.8325,-1.8356,-1.839,-1.8441,-1.8435,-1.8458,-1.8467,-1.8492,-1.8535,-1.8483,-1.8484,-1.8492,-1.8594,-1.8599,-1.8607,-1.8535,-1.8536,-1.8537,-1.8591,0,-1.8123,-1.8194,-1.8209,-1.8271,-1.8306,-1.8311,-1.8345,-1.8374,-1.839,-1.8422,-1.8439,-1.8476,-1.8466,-1.8479,-1.8505,-1.8524,-1.8556,-1.8521,-1.8566,-1.8567,-1.8558,-1.8617,-1.8622,-1.8672,-1.8599,-1.86,-1.8601,0,-1.8192,-1.8226,-1.8292,-1.8328,-1.8343,-1.8374,-1.8412,-1.8442,-1.8474,-1.8484,-1.851,-1.8516,-1.8557,-1.8538,-1.8594,-1.8569,-1.8589,-1.8601,-1.8603,-1.8608,-1.8587,-1.8624,-1.8688,-1.8696,-1.8612,-1.8611,-1.861,0,-1.8224,-1.8285,-1.8333,-1.835,-1.8393,-1.8414,-1.8433,-1.8464,-1.8487,-1.8519,-1.8535,-1.8571,-1.8591,-1.8619,-1.8634,-1.8619,-1.8689,-1.8672,-1.8698,-1.8698,-1.8713,-1.8712,-1.8782,-1.8725,-1.8725,-1.8725,-1.8725,0,-1.828,-1.832,-1.8347,-1.8376,-1.8421,-1.8437,-1.848,-1.8499,-1.8526,-1.8558,-1.8564,-1.8594,-1.8612,-1.8645,-1.8657,-1.8701,-1.871,-1.8719,-1.8722,-1.8719,-1.8718,-1.8732,-1.8729,-1.8727,-1.8727,-1.8726,-1.8726,0,-1.8323,-1.8343,-1.8395,-1.8431,-1.8441,-1.8472,-1.8503,-1.8531,-1.8548,-1.8588,-1.8599,-1.8624,-1.8662,-1.8681,-1.8728,-1.8736,-1.8787,-1.8787,-1.8776,-1.8777,-1.8803,-1.8801,-1.8885,-1.8897,-1.8832,-1.8832,-1.8833,0,-1.8357,-1.8388,-1.8428,-1.8451,-1.847,-1.8506,-1.853,-1.8546,-1.8571,-1.8609,-1.8633,-1.8671,-1.8703,-1.8764,-1.8786,-1.8823,-1.8824,-1.8851,-1.8829,-1.8825,-1.8825,-1.8823,-1.8826,-1.8855,-1.8855,-1.8856,-1.8856,0,-1.8417,-1.8425,-1.846,-1.8497,-1.8526,-1.8556,-1.8586,-1.8604,-1.8625,-1.8652,-1.8692,-1.8716,-1.8765,-1.8803,-1.8841,-1.886,-1.8862,-1.8863,-1.8871,-1.8869,-1.8861,-1.8866,-1.8787,-1.8861,-1.8861,-1.886,-1.886,-1.886,-1.8457,-1.8485,-1.8517,-1.8555,-1.8579,-1.8607,-1.8635,-1.8655,-1.8689,-1.8731,-1.8738,-1.878,-1.8811,-1.8862,-1.8882,-1.8914,-1.8908,-1.892,-1.8923,-1.8926,-1.8927,-1.8856,-1.8921,-1.8921,-1.8921,-1.8921,-1.8921,0,-1.8517,-1.8538,-1.8573,-1.8615,-1.8645,-1.8644,-1.8677,-1.8702,-1.8739,-1.8768,-1.88,-1.8845,-1.8882,-1.8907,-1.8945,-1.8966,-1.8968,-1.8976,-1.8974,-1.8978,-1.8931,-1.892,-1.8973,-1.8973,-1.8973,-1.8973,-1.8973,-1.8973,-1.8552,-1.8599,-1.8611,-1.867,-1.869,-1.8732,-1.8751,-1.8777,-1.88,-1.8851,-1.8882,-1.8898,-1.8925,-1.8965,-1.8999,-1.9005,-1.9019,-1.9026,-1.9032,-1.8987,-1.8982,-1.8977,-1.8967,-1.9029,-1.9029,-1.9078,-1.9078,-1.9078]}]]